Orbital Elements at Epoch 2459200.5 (2020-Dec-17.0) TDB
Reference: JPL 18 (heliocentric ecliptic J2000)
Element | Value | Uncertainty (1-sigma) | Units |
e | .0157133203485026 | 3.819e-08 | |
a | 2.856482730438922 | 1.6365e-08 | au |
q | 2.81159790222557 | 1.1072e-07 | au |
i | 3.664033153625749 | 4.3362e-06 | deg |
node | 78.7292846508404 | 6.4439e-05 | deg |
peri | 348.7016771591697 | 0.0001615 | deg |
M | .3043615755406175 | 0.00014627 | deg |
tp | 2459199.009152731893 (2020-Dec-15.50915273) | 0.00071646 | TDB |
period | 1763.379676180675 4.83 | 1.5154e-05 4.149e-08 | d yr |
n | .2041534247347845 | 1.7545e-09 | deg/d |
Q | 2.901367558652274 | 1.6623e-08 | au |
|
| | Orbit Determination Parameters
Additional Information
|